Location: Clanezzo
(45.7500°N, 9.6000°E)
Time: 04:25:36
(UTC+00:00)

ERS-1 Rocket - Pass Details

Date: 12 May 2021
Orbit: 754 x 757 km, 98.4° (Epoch: 18 June)

Event Time Altitude Azimuth Distance (km) Brightness Sun altitude
Exits shadow 21:30:09 31° 208° (SSW) 1,317 3.9 -21.4°
Maximum altitude 21:32:10 47° 261° (W) 1,003 3.7 -21.5°
Drops below altitude 10° 21:37:01 10° 335° (NNW) 2,292 6.6 -21.9°
Sets 21:39:25 0° 341° (NNW) 3,222 7.7 -22.1°
